Time,TemperatureF,DewpointF,PressureIn,WindDirection,WindDirectionDegrees,WindSpeedMPH,WindSpeedGustMPH,Humidity,HourlyPrecipIn,Conditions,Clouds,dailyrainin,SoftwareType,DateUTC
2013-05-26 00:02:00,45.0,35.0,30.11,South,170,0.0,1.0,67,0.00,,,0.01,,2013-05-26 04:02:00,
2013-05-26 00:12:00,45.0,35.0,30.11,South,170,0.0,1.0,67,0.00,,,0.01,,2013-05-26 04:12:00,
2013-05-26 00:23:00,42.0,34.0,30.11,SSE,166,0.0,1.0,74,0.00,,,0.01,,2013-05-26 04:23:00,
2013-05-26 00:33:00,43.0,35.0,30.11,ESE,103,0.0,1.0,73,0.00,,,0.01,,2013-05-26 04:33:00,
2013-05-26 00:42:00,43.0,35.0,30.11,ESE,103,0.0,1.0,73,0.00,,,0.01,,2013-05-26 04:42:00,
2013-05-26 00:52:00,43.0,35.0,30.11,NNW,336,0.0,0.0,72,0.00,,,0.01,,2013-05-26 04:52:00,
2013-05-26 01:02:00,42.0,35.0,30.11,South,178,0.0,1.0,75,0.00,,,0.01,,2013-05-26 05:02:00,
2013-05-26 01:12:00,42.0,35.0,30.11,South,178,0.0,1.0,75,0.00,,,0.01,,2013-05-26 05:12:00,
2013-05-26 01:22:00,42.0,34.0,30.11,WSW,251,0.0,1.0,73,0.00,,,0.01,,2013-05-26 05:22:00,
2013-05-26 01:32:00,47.0,32.0,30.11,West,260,1.0,3.0,56,0.00,,,0.01,,2013-05-26 05:32:00,
2013-05-26 01:42:00,47.0,32.0,30.11,West,260,1.0,3.0,56,0.00,,,0.01,,2013-05-26 05:42:00,
2013-05-26 01:52:00,47.0,32.0,30.11,West,281,1.0,2.0,56,0.00,,,0.01,,2013-05-26 05:52:00,
2013-05-26 02:01:00,47.0,32.0,30.10,NW,324,0.0,1.0,56,0.00,,,0.01,,2013-05-26 06:01:00,
2013-05-26 02:12:00,47.0,32.0,30.10,NW,324,0.0,1.0,56,0.00,,,0.01,,2013-05-26 06:12:00,
2013-05-26 02:22:00,46.0,32.0,30.10,West,270,0.0,1.0,58,0.00,,,0.01,,2013-05-26 06:22:00,
2013-05-26 02:32:00,46.0,33.0,30.10,NW,306,1.0,3.0,60,0.00,,,0.01,,2013-05-26 06:32:00,
2013-05-26 02:42:00,46.0,33.0,30.10,NW,306,1.0,3.0,60,0.00,,,0.01,,2013-05-26 06:42:00,
2013-05-26 02:52:00,46.0,33.0,30.10,WNW,288,2.0,3.0,60,0.00,,,0.01,,2013-05-26 06:52:00,
2013-05-26 03:01:00,47.0,33.0,30.11,WNW,295,2.0,4.0,57,0.00,,,0.01,,2013-05-26 07:01:00,
2013-05-26 03:11:00,47.0,33.0,30.11,WNW,295,2.0,4.0,57,0.00,,,0.01,,2013-05-26 07:11:00,
2013-05-26 03:22:00,47.0,33.0,30.10,WNW,289,2.0,4.0,57,0.00,,,0.01,,2013-05-26 07:22:00,
2013-05-26 03:32:00,47.0,33.0,30.10,WNW,298,2.0,3.0,57,0.00,,,0.01,,2013-05-26 07:32:00,
2013-05-26 03:42:00,47.0,33.0,30.10,WNW,298,2.0,3.0,57,0.00,,,0.01,,2013-05-26 07:42:00,
2013-05-26 03:52:00,47.0,33.0,30.10,WNW,285,1.0,2.0,58,0.00,,,0.01,,2013-05-26 07:52:00,
2013-05-26 04:01:00,46.0,32.0,30.10,WNW,292,0.0,2.0,59,0.00,,,0.01,,2013-05-26 08:01:00,
2013-05-26 04:12:00,46.0,32.0,30.10,WNW,292,0.0,2.0,59,0.00,,,0.01,,2013-05-26 08:12:00,
2013-05-26 04:21:00,46.0,32.0,30.11,North,349,1.0,2.0,58,0.00,,,0.01,,2013-05-26 08:21:00,
2013-05-26 04:32:00,46.0,32.0,30.10,WNW,302,2.0,3.0,59,0.00,,,0.01,,2013-05-26 08:32:00,
2013-05-26 04:42:00,46.0,32.0,30.10,WNW,302,2.0,3.0,59,0.00,,,0.01,,2013-05-26 08:42:00,
2013-05-26 04:53:00,46.0,33.0,30.11,WSW,239,0.0,1.0,60,0.00,,,0.01,,2013-05-26 08:53:00,
2013-05-26 05:01:00,46.0,33.0,30.11,WNW,296,2.0,3.0,60,0.00,,,0.01,,2013-05-26 09:01:00,
2013-05-26 05:11:00,46.0,33.0,30.12,WNW,284,2.0,3.0,60,0.00,,,0.01,,2013-05-26 09:11:00,
2013-05-26 05:21:00,46.0,33.0,30.12,WNW,284,2.0,3.0,60,0.00,,,0.01,,2013-05-26 09:21:00,
2013-05-26 05:33:00,46.0,33.0,30.12,WNW,288,2.0,3.0,60,0.00,,,0.01,,2013-05-26 09:33:00,
2013-05-26 05:42:00,46.0,33.0,30.12,WNW,288,2.0,3.0,60,0.00,,,0.01,,2013-05-26 09:42:00,
2013-05-26 05:53:00,46.0,33.0,30.12,NW,311,1.0,3.0,60,0.00,,,0.01,,2013-05-26 09:53:00,
2013-05-26 06:02:00,46.0,33.0,30.12,NW,319,2.0,3.0,61,0.00,,,0.01,,2013-05-26 10:02:00,
2013-05-26 06:12:00,46.0,33.0,30.12,NW,319,2.0,3.0,61,0.00,,,0.01,,2013-05-26 10:12:00,
2013-05-26 06:23:00,45.0,33.0,30.13,WNW,297,2.0,4.0,63,0.00,,,0.01,,2013-05-26 10:23:00,
2013-05-26 06:33:00,46.0,34.0,30.13,WNW,286,2.0,3.0,63,0.00,,,0.01,,2013-05-26 10:33:00,
2013-05-26 06:42:00,47.0,34.0,30.14,WNW,292,4.0,5.0,60,0.00,,,0.01,,2013-05-26 10:42:00,
2013-05-26 06:52:00,47.0,34.0,30.14,WNW,292,4.0,5.0,60,0.00,,,0.01,,2013-05-26 10:52:00,
2013-05-26 07:03:00,48.0,34.0,30.14,WNW,286,3.0,6.0,59,0.00,,,0.01,,2013-05-26 11:03:00,
2013-05-26 07:11:00,48.0,34.0,30.14,WNW,286,3.0,6.0,59,0.00,,,0.01,,2013-05-26 11:11:00,
2013-05-26 07:22:00,49.0,35.0,30.14,WNW,291,5.0,8.0,58,0.00,,,0.01,,2013-05-26 11:22:00,
2013-05-26 07:32:00,49.0,34.0,30.14,WNW,294,5.0,8.0,57,0.00,,,0.01,,2013-05-26 11:32:00,
2013-05-26 07:42:00,49.0,34.0,30.14,WNW,294,5.0,8.0,57,0.00,,,0.01,,2013-05-26 11:42:00,
2013-05-26 07:52:00,50.0,34.0,30.14,WNW,292,5.0,8.0,55,0.00,,,0.01,,2013-05-26 11:52:00,
2013-05-26 08:02:00,51.0,35.0,30.14,WNW,282,4.0,7.0,55,0.00,,,0.01,,2013-05-26 12:02:00,
2013-05-26 08:12:00,51.0,35.0,30.14,WNW,282,4.0,7.0,55,0.00,,,0.01,,2013-05-26 12:12:00,
2013-05-26 08:22:00,52.0,35.0,30.14,WNW,295,5.0,8.0,52,0.00,,,0.01,,2013-05-26 12:22:00,
2013-05-26 08:32:00,52.0,34.0,30.14,WNW,287,6.0,12.0,50,0.00,,,0.01,,2013-05-26 12:32:00,
2013-05-26 08:42:00,52.0,34.0,30.14,WNW,287,6.0,12.0,50,0.00,,,0.01,,2013-05-26 12:42:00,
2013-05-26 08:52:00,53.0,34.0,30.14,WNW,300,5.0,8.0,49,0.00,,,0.01,,2013-05-26 12:52:00,
2013-05-26 09:02:00,55.0,36.0,30.15,WNW,289,3.0,6.0,48,0.00,,,0.01,,2013-05-26 13:02:00,
2013-05-26 09:11:00,55.0,36.0,30.15,WNW,289,3.0,6.0,48,0.00,,,0.01,,2013-05-26 13:11:00,
2013-05-26 09:21:00,55.0,34.0,30.14,NW,307,5.0,9.0,45,0.00,,,0.01,,2013-05-26 13:21:00,
2013-05-26 09:32:00,56.0,35.0,30.16,WNW,292,4.0,7.0,45,0.00,,,0.01,,2013-05-26 13:32:00,
2013-05-26 09:42:00,57.0,35.0,30.16,WNW,302,5.0,9.0,43,0.00,,,0.00,,2013-05-26 13:42:00,
2013-05-26 09:52:00,57.0,35.0,30.16,WNW,302,5.0,9.0,43,0.00,,,0.00,,2013-05-26 13:52:00,
2013-05-26 10:02:00,57.0,34.0,30.15,WNW,303,4.0,9.0,42,0.00,,,0.00,,2013-05-26 14:02:00,
2013-05-26 10:11:00,57.0,34.0,30.15,WNW,303,4.0,9.0,42,0.00,,,0.00,,2013-05-26 14:11:00,
2013-05-26 10:21:00,57.0,33.0,30.15,WNW,296,6.0,9.0,40,0.00,,,0.00,,2013-05-26 14:21:00,
2013-05-26 10:32:00,58.0,33.0,30.15,NW,309,7.0,14.0,38,0.00,,,0.00,,2013-05-26 14:32:00,
2013-05-26 10:42:00,58.0,32.0,30.15,WNW,301,8.0,11.0,37,0.00,,,0.00,,2013-05-26 14:42:00,
2013-05-26 10:52:00,58.0,32.0,30.15,WNW,301,8.0,11.0,37,0.00,,,0.00,,2013-05-26 14:52:00,
2013-05-26 11:01:00,59.0,31.0,30.15,North,355,5.0,9.0,34,0.00,,,0.00,,2013-05-26 15:01:00,
2013-05-26 11:12:00,59.0,31.0,30.15,North,355,5.0,9.0,34,0.00,,,0.00,,2013-05-26 15:12:00,
2013-05-26 11:22:00,59.0,31.0,30.15,WNW,290,9.0,14.0,34,0.00,,,0.00,,2013-05-26 15:22:00,
2013-05-26 11:33:00,59.0,31.0,30.15,NW,305,9.0,12.0,34,0.00,,,0.00,,2013-05-26 15:33:00,
2013-05-26 11:43:00,60.0,33.0,30.14,WNW,298,7.0,11.0,36,0.00,,,0.00,,2013-05-26 15:43:00,
2013-05-26 11:53:00,60.0,33.0,30.14,WNW,298,7.0,11.0,36,0.00,,,0.00,,2013-05-26 15:53:00,
2013-05-26 12:03:00,60.0,33.0,30.14,WNW,298,7.0,11.0,36,0.00,,,0.00,,2013-05-26 16:03:00,
2013-05-26 12:12:00,61.0,33.0,30.14,WNW,301,5.0,9.0,35,0.00,,,0.00,,2013-05-26 16:12:00,
2013-05-26 12:20:00,61.0,32.0,30.14,NW,311,5.0,9.0,33,0.00,,,0.00,,2013-05-26 16:20:00,
2013-05-26 12:23:00,61.0,33.0,30.14,WNW,301,5.0,9.0,35,0.00,,,0.00,,2013-05-26 16:23:00,
2013-05-26 12:33:00,60.0,30.0,30.15,WNW,286,9.0,12.0,32,0.00,,,0.00,,2013-05-26 16:33:00,
2013-05-26 12:42:00,61.0,32.0,30.14,NW,311,5.0,9.0,33,0.00,,,0.00,,2013-05-26 16:42:00,
2013-05-26 12:53:00,61.0,32.0,30.14,NW,311,5.0,9.0,33,0.00,,,0.00,,2013-05-26 16:53:00,
2013-05-26 13:02:00,61.0,32.0,30.14,NW,311,5.0,9.0,33,0.00,,,0.00,,2013-05-26 17:02:00,
2013-05-26 13:11:00,61.0,32.0,30.14,NW,311,5.0,9.0,33,0.00,,,0.00,,2013-05-26 17:11:00,
2013-05-26 13:32:00,63.0,33.0,30.14,WNW,296,6.0,11.0,32,0.00,,,0.00,,2013-05-26 17:32:00,
2013-05-26 13:42:00,63.0,32.0,30.14,NW,307,5.0,8.0,31,0.00,,,0.00,,2013-05-26 17:42:00,
2013-05-26 13:52:00,63.0,32.0,30.14,NW,307,5.0,8.0,31,0.00,,,0.00,,2013-05-26 17:52:00,
2013-05-26 14:01:00,63.0,32.0,30.14,WNW,295,6.0,12.0,31,0.00,,,0.00,,2013-05-26 18:01:00,
2013-05-26 14:12:00,63.0,32.0,30.14,WNW,295,6.0,12.0,31,0.00,,,0.00,,2013-05-26 18:12:00,
2013-05-26 14:21:00,64.0,30.0,30.14,WNW,292,6.0,10.0,28,0.00,,,0.00,,2013-05-26 18:21:00,
2013-05-26 14:32:00,64.0,33.0,30.13,West,275,6.0,9.0,31,0.00,,,0.00,,2013-05-26 18:32:00,
2013-05-26 14:42:00,64.0,32.0,30.13,WNW,297,6.0,13.0,30,0.00,,,0.00,,2013-05-26 18:42:00,
2013-05-26 14:52:00,64.0,32.0,30.13,WNW,297,6.0,13.0,30,0.00,,,0.00,,2013-05-26 18:52:00,
2013-05-26 15:01:00,64.0,31.0,30.13,WNW,303,6.0,11.0,29,0.00,,,0.00,,2013-05-26 19:01:00,
2013-05-26 15:11:00,64.0,31.0,30.13,WNW,303,6.0,11.0,29,0.00,,,0.00,,2013-05-26 19:11:00,
2013-05-26 15:22:00,65.0,31.0,30.12,NW,310,6.0,10.0,28,0.00,,,0.00,,2013-05-26 19:22:00,
2013-05-26 15:32:00,65.0,31.0,30.13,NNW,327,6.0,10.0,28,0.00,,,0.00,,2013-05-26 19:32:00,
2013-05-26 15:42:00,66.0,32.0,30.12,WNW,296,7.0,10.0,28,0.00,,,0.00,,2013-05-26 19:42:00,
2013-05-26 15:52:00,66.0,32.0,30.12,WNW,296,7.0,10.0,28,0.00,,,0.00,,2013-05-26 19:52:00,
2013-05-26 16:02:00,66.0,31.0,30.12,WNW,298,7.0,13.0,27,0.00,,,0.00,,2013-05-26 20:02:00,
2013-05-26 16:11:00,66.0,31.0,30.12,WNW,298,7.0,13.0,27,0.00,,,0.00,,2013-05-26 20:11:00,
2013-05-26 16:22:00,67.0,32.0,30.12,NNW,330,5.0,9.0,27,0.00,,,0.00,,2013-05-26 20:22:00,
2013-05-26 16:32:00,66.0,30.0,30.11,WNW,288,9.0,14.0,26,0.00,,,0.00,,2013-05-26 20:32:00,
2013-05-26 16:42:00,67.0,32.0,30.11,NW,319,4.0,7.0,27,0.00,,,0.00,,2013-05-26 20:42:00,
2013-05-26 16:52:00,67.0,32.0,30.11,NW,319,4.0,7.0,27,0.00,,,0.00,,2013-05-26 20:52:00,
2013-05-26 17:02:00,67.0,31.0,30.11,NNW,336,5.0,12.0,26,0.00,,,0.00,,2013-05-26 21:02:00,
2013-05-26 17:11:00,67.0,31.0,30.11,NNW,336,5.0,12.0,26,0.00,,,0.00,,2013-05-26 21:11:00,
2013-05-26 17:22:00,67.0,31.0,30.11,WNW,286,6.0,10.0,26,0.00,,,0.00,,2013-05-26 21:22:00,
2013-05-26 17:33:00,68.0,32.0,30.11,NW,315,4.0,7.0,26,0.00,,,0.00,,2013-05-26 21:33:00,
2013-05-26 17:43:00,68.0,32.0,30.11,NW,315,4.0,7.0,26,0.00,,,0.00,,2013-05-26 21:43:00,
2013-05-26 17:53:00,68.0,32.0,30.11,NW,315,4.0,7.0,26,0.00,,,0.00,,2013-05-26 21:53:00,
2013-05-26 18:03:00,68.0,31.0,30.11,NW,307,3.0,7.0,25,0.00,,,0.00,,2013-05-26 22:03:00,
2013-05-26 18:12:00,68.0,31.0,30.11,NW,307,3.0,7.0,25,0.00,,,0.00,,2013-05-26 22:12:00,
2013-05-26 18:23:00,68.0,31.0,30.11,WNW,295,7.0,9.0,25,0.00,,,0.00,,2013-05-26 22:23:00,
2013-05-26 18:33:00,68.0,31.0,30.11,WNW,291,4.0,9.0,25,0.00,,,0.00,,2013-05-26 22:33:00,
2013-05-26 18:42:00,68.0,31.0,30.12,WNW,283,5.0,8.0,25,0.00,,,0.00,,2013-05-26 22:42:00,
2013-05-26 18:53:00,68.0,31.0,30.12,WNW,283,5.0,8.0,25,0.00,,,0.00,,2013-05-26 22:53:00,
2013-05-26 19:02:00,68.0,31.0,30.12,NW,309,3.0,6.0,25,0.00,,,0.00,,2013-05-26 23:02:00,
2013-05-26 19:12:00,68.0,31.0,30.12,NW,309,3.0,6.0,25,0.00,,,0.00,,2013-05-26 23:12:00,
2013-05-26 19:22:00,68.0,30.0,30.12,NW,307,4.0,7.0,24,0.00,,,0.00,,2013-05-26 23:22:00,
2013-05-26 19:32:00,68.0,31.0,30.12,NW,314,2.0,3.0,25,0.00,,,0.00,,2013-05-26 23:32:00,
2013-05-26 19:43:00,67.0,30.0,30.13,WNW,282,3.0,5.0,25,0.00,,,0.00,,2013-05-26 23:43:00,
2013-05-26 19:52:00,67.0,30.0,30.13,WNW,282,3.0,5.0,25,0.00,,,0.00,,2013-05-26 23:52:00,
2013-05-26 20:02:00,67.0,30.0,30.13,WNW,297,1.0,3.0,25,0.00,,,0.00,,2013-05-27 00:02:00,
2013-05-26 20:11:00,67.0,30.0,30.13,WNW,297,1.0,3.0,25,0.00,,,0.00,,2013-05-27 00:11:00,
2013-05-26 20:22:00,65.0,31.0,30.14,NW,325,1.0,2.0,28,0.00,,,0.00,,2013-05-27 00:22:00,
2013-05-26 20:32:00,64.0,32.0,30.14,SSW,210,0.0,0.0,30,0.00,,,0.00,,2013-05-27 00:32:00,
2013-05-26 20:42:00,59.0,38.0,30.14,SE,140,0.0,1.0,46,0.00,,,0.00,,2013-05-27 00:42:00,
2013-05-26 20:52:00,59.0,38.0,30.14,SE,140,0.0,1.0,46,0.00,,,0.00,,2013-05-27 00:52:00,
2013-05-26 21:01:00,56.0,37.0,30.15,North,0,0.0,0.0,48,0.00,,,0.00,,2013-05-27 01:01:00,
2013-05-26 21:11:00,56.0,37.0,30.15,North,0,0.0,0.0,48,0.00,,,0.00,,2013-05-27 01:11:00,
2013-05-26 21:22:00,56.0,37.0,30.14,NE,41,0.0,0.0,49,0.00,,,0.00,,2013-05-27 01:22:00,
2013-05-26 21:32:00,52.0,39.0,30.14,SSE,161,0.0,0.0,60,0.00,,,0.00,,2013-05-27 01:32:00,
2013-05-26 21:42:00,51.0,38.0,30.15,SSE,147,0.0,1.0,61,0.00,,,0.00,,2013-05-27 01:42:00,
2013-05-26 21:52:00,51.0,38.0,30.15,SSE,147,0.0,1.0,61,0.00,,,0.00,,2013-05-27 01:52:00,
2013-05-26 22:02:00,51.0,38.0,30.15,North,0,0.0,0.0,60,0.00,,,0.00,,2013-05-27 02:02:00,
2013-05-26 22:11:00,51.0,38.0,30.15,North,0,0.0,0.0,60,0.00,,,0.00,,2013-05-27 02:11:00,
2013-05-26 22:22:00,49.0,39.0,30.16,SE,132,0.0,1.0,69,0.00,,,0.00,,2013-05-27 02:22:00,
2013-05-26 22:32:00,50.0,40.0,30.17,NW,324,0.0,1.0,69,0.00,,,0.00,,2013-05-27 02:32:00,
2013-05-26 22:42:00,48.0,40.0,30.17,SE,137,1.0,1.0,73,0.00,,,0.00,,2013-05-27 02:42:00,
2013-05-26 22:52:00,48.0,40.0,30.17,SE,137,1.0,1.0,73,0.00,,,0.00,,2013-05-27 02:52:00,
2013-05-26 23:02:00,48.0,40.0,30.18,NW,326,0.0,0.0,73,0.00,,,0.00,,2013-05-27 03:02:00,
2013-05-26 23:11:00,48.0,40.0,30.18,NW,326,0.0,0.0,73,0.00,,,0.00,,2013-05-27 03:11:00,
2013-05-26 23:21:00,46.0,39.0,30.19,North,0,0.0,0.0,76,0.00,,,0.00,,2013-05-27 03:21:00,
2013-05-26 23:33:00,47.0,39.0,30.20,ESE,123,0.0,0.0,74,0.00,,,0.00,,2013-05-27 03:33:00,
2013-05-26 23:43:00,46.0,39.0,30.20,North,0,0.0,0.0,75,0.00,,,0.00,,2013-05-27 03:43:00,
2013-05-26 23:53:00,46.0,39.0,30.20,North,0,0.0,0.0,75,0.00,,,0.00,,2013-05-27 03:53:00,